DW4360 Weather Reports


time (UTC)temp
F
wind
direction
speed
knots
gust
knots
rain 1hr
in
rain 24hr
in
rain mn
in
humidity
%
barometer
mb
20260506134821 57 323 0.0 0.0 0.00 0.00 0.00 85 1018.7
20260506133820 57 323 0.0 0.0 0.00 0.00 0.00 85 1018.6
20260506132819 57 323 0.0 0.0 0.00 0.00 0.00 86 1018.7
20260506131818 57 323 0.0 0.0 0.00 0.00 0.00 85 1018.5
20260506130817 57 323 0.0 0.0 0.00 0.00 0.00 85 1018.3
20260506124815 57 323 0.0 0.0 0.00 0.00 0.00 85 1018.2
20260506123814 57 323 0.0 0.0 0.00 0.00 0.00 85 1018.1
20260506122813 57 323 0.0 0.0 0.00 0.00 0.00 84 1018.2
20260506121812 57 324 0.0 0.0 0.00 0.00 0.00 84 1018.3
20260506120811 57 324 0.0 0.0 0.00 0.00 0.00 84 1018.2
20260506114809 57 323 3.5 0.0 0.00 0.00 0.00 84 1018.0
20260506113808 57 315 0.0 0.0 0.00 0.00 0.00 83 1017.9
20260506111806 57 323 0.0 0.0 0.00 0.00 0.00 83 1017.8
20260506110805 58 319 0.0 0.0 0.00 0.00 0.00 82 1017.6
20260506105804 58 316 1.7 0.0 0.00 0.00 0.00 82 1017.5
20260506103802 58 313 0.0 0.0 0.00 0.00 0.00 81 1017.2
20260506102801 58 323 0.0 0.0 0.00 0.00 0.00 82 1017.2
20260506100759 58 324 0.0 0.0 0.00 0.00 0.00 81 1016.9
20260506095758 58 324 0.0 0.0 0.00 0.00 0.00 81 1016.9
20260506094757 58 326 0.0 0.0 0.00 0.00 0.00 81 1016.8
20260506093756 58 326 0.0 0.0 0.00 0.00 0.00 81 1016.8
20260506091754 59 322 0.0 0.0 0.00 0.00 0.00 80 1016.7
20260506090753 59 322 0.0 0.0 0.00 0.00 0.00 80 1016.6
20260506085752 59 323 0.0 0.0 0.00 0.00 0.00 80 1016.6
20260506084751 59 323 0.0 0.0 0.00 0.00 0.00 80 1016.6
20260506083750 59 321 0.0 0.0 0.00 0.00 0.00 80 1016.6
20260506080747 60 323 0.0 0.0 0.00 0.00 0.00 80 1016.5
20260506072743 60 325 0.0 0.0 0.00 0.00 0.00 81 1016.1
20260506071742 60 325 0.0 0.0 0.00 0.00 0.00 81 1016.1
20260506070741 60 325 0.0 0.0 0.00 0.00 0.00 81 1016.1
20260506061735 60 325 0.0 0.0 0.00 0.00 0.00 83 1015.8
20260506060734 60 325 0.0 0.0 0.00 0.00 0.00 83 1015.7
20260506044726 59 325 0.0 0.0 0.00 0.00 0.00 84 1015.3
20260506043726 59 325 0.0 0.0 0.00 0.00 0.00 84 1015.2
20260506042724 59 325 0.0 0.0 0.00 0.00 0.00 83 1015.1
20260506040722 60 325 0.0 0.0 0.00 0.00 0.00 81 1014.9
20260506035721 60 325 0.0 0.0 0.00 0.00 0.00 80 1014.8
20260506034720 61 325 0.0 0.0 0.00 0.00 0.00 79 1014.5
20260506033720 61 325 0.0 0.0 0.00 0.00 0.00 77 1014.4
20260506031717 62 325 0.0 0.0 0.00 0.00 0.00 75 1014.4
20260506030716 63 325 0.0 0.0 0.00 0.00 0.00 73 1014.3
20260506024714 64 325 0.0 0.0 0.00 0.00 0.00 73 1014.0
20260506023713 64 325 0.0 0.0 0.00 0.00 0.00 72 1014.0
20260506022712 64 325 0.0 0.0 0.00 0.00 0.00 71 1014.0
20260506020710 64 327 0.0 0.0 0.00 0.00 0.00 71 1014.0
20260506015709 64 327 0.0 0.0 0.00 0.00 0.00 71 1014.0
20260506014708 64 327 0.0 0.0 0.00 0.00 0.00 71 1014.0
20260506013707 64 327 0.0 0.0 0.00 0.00 0.00 70 1014.1
20260506012706 64 327 0.0 0.0 0.00 0.00 0.00 69 1014.0
20260506011705 64 323 0.0 0.0 0.00 0.00 0.00 70 1014.0
20260506005703 65 322 0.0 0.0 0.00 0.00 0.00 70 1014.1
20260506004702 65 322 0.0 0.0 0.00 0.00 0.00 70 1014.2
20260506003701 65 321 0.0 0.0 0.00 0.00 0.00 71 1014.2
20260506002700 65 325 0.0 0.0 0.00 0.00 0.00 70 1014.2
20260506001659 65 325 0.0 0.0 0.00 0.00 0.00 70 1014.2
20260506000658 65 325 0.0 0.0 0.00 0.00 0.00 70 1014.3
20260505235657 65 325 0.0 0.0 0.00 0.00 0.00 70 1014.4
20260505234656 65 325 0.0 0.0 0.00 0.00 0.00 71 1014.5
20260505233655 65 330 0.0 0.0 0.00 0.00 0.00 71 1014.6
20260505232654 65 329 2.6 0.0 0.00 0.00 0.00 71 1014.6
20260505231653 65 327 0.0 0.0 0.00 0.00 0.00 70 1014.7
20260505230652 65 329 0.0 0.0 0.00 0.00 0.00 70 1014.7
20260505225651 65 329 0.0 0.0 0.00 0.00 0.00 72 1014.7
20260505224650 64 332 3.5 0.0 0.00 0.00 0.00 72 1014.8
20260505223649 64 345 0.0 0.0 0.00 0.00 0.00 73 1014.9
20260505222648 64 344 0.0 0.0 0.00 0.00 0.00 74 1014.9
20260505221647 64 322 0.0 0.0 0.00 0.00 0.00 74 1015.0
20260505220646 63 330 0.0 0.0 0.00 0.00 0.00 74 1015.0
20260505215645 63 330 0.0 0.0 0.00 0.00 0.00 73 1015.1
20260505213642 63 329 0.0 0.0 0.00 0.00 0.00 74 1015.1
20260505212641 63 329 0.0 0.0 0.00 0.00 0.00 74 1015.2
20260505211640 63 329 0.0 0.0 0.00 0.00 0.00 75 1015.2
20260505210639 63 332 0.0 0.0 0.00 0.00 0.00 73 1015.2
20260505205639 63 336 1.7 0.0 0.00 0.00 0.00 74 1015.3
20260505204638 63 323 0.0 0.0 0.00 0.00 0.00 73 1015.4
20260505203637 63 323 0.0 0.0 0.00 0.00 0.00 74 1015.4
20260505202635 63 323 0.0 0.0 0.00 0.00 0.00 73 1015.5
20260505201635 63 325 0.0 0.0 0.00 0.00 0.00 72 1015.4
20260505200633 63 326 3.5 0.0 0.00 0.00 0.00 71 1015.5
20260505195633 64 211 0.0 0.0 0.00 0.00 0.00 70 1015.5
20260505194631 64 211 0.9 0.0 0.00 0.00 0.00 72 1015.5
20260505192629 64 207 0.0 0.0 0.00 0.00 0.00 71 1015.6
20260505191628 64 207 0.0 0.0 0.00 0.00 0.00 71 1015.6
20260505190628 63 279 0.0 0.0 0.00 0.00 0.00 72 1015.6
20260505184625 62 279 0.0 0.0 0.00 0.00 0.00 75 1015.6
20260505183624 61 236 0.0 0.0 0.00 0.00 0.00 76 1015.8
20260505182623 61 236 0.0 0.0 0.00 0.00 0.00 76 1015.8
20260505181622 60 236 0.0 0.0 0.00 0.00 0.00 78 1015.7
20260505180621 60 236 0.0 0.0 0.00 0.00 0.00 77 1015.6
20260505175620 60 236 0.0 0.0 0.00 0.00 0.00 79 1015.6
20260505173619 60 236 0.0 0.0 0.00 0.00 0.00 77 1015.6
20260505172617 59 232 0.0 0.0 0.00 0.00 0.00 79 1015.6
20260505171616 59 232 0.0 0.0 0.00 0.00 0.00 79 1015.4
20260505170615 59 233 0.0 0.0 0.00 0.00 0.00 79 1015.3
20260505165614 59 233 0.0 0.0 0.00 0.00 0.00 79 1015.3
20260505164613 59 195 0.0 0.0 0.00 0.00 0.00 80 1015.3
20260505163612 58 265 0.0 0.0 0.00 0.00 0.00 79 1015.2
20260505162611 58 217 0.0 0.0 0.00 0.00 0.00 79 1015.2
20260505161610 58 217 0.0 0.0 0.00 0.00 0.00 81 1015.1
20260505160609 58 217 0.0 0.0 0.00 0.00 0.00 81 1015.1
20260505152605 56 217 0.0 0.0 0.00 0.00 0.00 84 1015.0
20260505150603 56 217 0.0 0.0 0.00 0.00 0.00 85 1015.0